SCP
0 0 0 0 0 0 0 0 0 0 0 0 0 0 0 0 0 0 0 0 0 0 -0 0 0 0 0 0 0 0 0 0 1 1 0 0 0 0 0 0 0 0 0 0
0 0 0 0 0 0 0 0 0 0 0 0 0 0 0 0 0 0 0 0 0 0 0 0 0 0 0 0 0 0 0 0 0 1 0 0 0 0 0 0 0 0 0 0
0 0 0 0 0 0 0 0 0 0 0 0 0 0 0 0 0 0 0 0 0 0 0 0 0 0 0 0 0 0 0 0 0 1 0 0 0 0 0 0 0 0 0 0
0 0 0 0 0 0 0 0 0 0 0 0 0 0 0 0 0 0 0 0 0 0 -0 -0 -0 -0 0 0 0 0 0 0 0 1 1 0 0 0 0 0 0 0 0 0
0 0 0 0 0 0 0 0 0 0 0 0 0 0 0 0 0 0 0 0 0 -0 -0 0 -0 -0 0 0 0 0 0 0 1 1 1 0 0 0 0 0 0 0 0 0
0 0 0 0 0 0 0 0 0 0 0 0 0 0 0 0 0 0 0 0 0 -0 -0 -0 0 0 0 0 0 0 0 0 1 1 1 0 0 0 0 0 0 0 0 0
0 0 0 0 0 0 0 0 0 0 0 0 0 0 0 0 0 0 0 0 0 -0 -0 -0 0 0 -0 -0 0 0 0 1 1 0 0 0 0 0 0 0 0 0 0 0
0 0 0 0 0 0 0 0 0 0 0 0 0 0 0 0 0 0 0 0 -0 -0 -0 -0 0 0 -0 -0 -0 0 0 0 0 0 0 0 0 0 0 0 0 0 0 0
0 0 0 0 0 0 0 0 0 0 0 0 0 0 0 0 0 0 0 -0 -0 -0 0 -0 0 0 -0 -0 -0 0 0 0 0 0 0 0 0 0 0 0 0 0 0 0
0 0 0 0 0 0 0 0 0 0 0 0 0 0 0 0 0 -0 -0 -0 -0 -0 -0 -0 -0 -0 -0 -0 -0 -0 0 0 0 0 0 0 0 0 0 0 0 0 0 0
0 0 0 0 0 0 0 0 0 0 0 0 0 0 0 0 0 0 0 0 -0 -0 -0 -0 0 -0 0 -0 -0 -0 -0 0 0 0 0 0 0 0 0 0 0 0 0 0
0 0 0 0 0 0 0 0 0 0 0 0 0 0 0 0 0 0 0 0 0 0 0 0 0 0 -0 -0 -0 -0 -0 0 0 0 0 0 0 0 0 0 0 0 0 0
0 0 0 0 0 0 0 0 0 0 0 0 0 0 0 0 0 0 0 0 0 0 0 0 0 0 -0 -0 -0 -0 -0 -0 0 -0 0 0 0 0 0 0 0 0 0 0
0 0 0 0 0 0 0 0 0 0 0 0 0 0 0 0 0 0 0 0 0 0 0 0 0 0 0 0 0 -0 -0 -0 -0 -0 0 0 0 0 0 0 0 0 0 0
0 0 0 0 0 0 0 0 0 0 0 0 0 0 0 0 0 0 0 0 0 0 0 0 -0 0 -0 -0 0 0 0 0 0 -0 -0 -0 0 0 0 0 0 0 0 0
0 0 0 0 0 0 0 0 0 0 0 0 0 0 0 0 0 0 0 0 0 0 0 0 0 0 0 0 0 0 0 -0 -0 -0 -0 0 0 0 0 0 0 0 0 0
0 0 0 0 0 0 0 0 -0 0 0 0 0 0 0 0 0 0 0 0 0 0 0 0 0 0 0 0 0 0 0 -0 0 0 0 0 0 0 0 0 0 0 0 0
0 0 0 0 0 0 0 0 0 -0 0 0 0 0 0 0 0 0 0 0 0 0 0 0 0 0 0 0 0 0 0 0 0 0 0 0 0 0 0 -0 -0 -0 -0 -0
0 0 0 0 0 0 0 0 0 -0 0 0 0 0 0 0 0 0 0 0 0 0 0 0 0 0 0 0 0 0 0 0 0 0 0 0 0 0 -0 -0 -0 -0 -0 -0
0 0 0 0 0 0 0 0 0 0 0 -0 -0 0 0 0 0 0 0 0 0 0 0 0 0 0 0 0 0 0 0 0 0 0 0 0 0 0 0 -0 -0 -0 -0 0
0 0 0 0 0 0 0 0 0 0 0 -0 -0 0 0 0 0 0 0 0 0 0 0 0 0 0 0 0 0 0 0 0 0 0 0 0 0 0 0 0 0 0 0 0
0 0 0 0 0 0 0 0 0 0 0 0 0 0 0 0 0 0 0 0 0 0 0 0 0 0 0 0 0 0 0 0 0 0 0 0 0 0 0 0 0 0 0 0
0 0 0 0 0 0 0 0 0 0 0 0 0 0 0 0 0 0 0 0 0 0 0 0 0 0 0 0 0 0 0 0 0 0 0 0 0 0 0 0 0 0 0 0
0 0 0 0 0 0 0 0 0 0 0 0 0 -0 -0 -0 0 0 0 0 0 0 0 0 0 0 0 0 0 0 0 0 0 0 0 0 0 0 0 0 0 0 0 0
0 0 0 0 0 0 0 0 0 0 0 0 0 0 -0 -0 0 0 0 0 0 0 0 0 0 0 0 0 0 0 0 0 0 0 0 0 0 0 0 0 0 0 0 0
0 0 0 0 0 0 0 0 0 0 0 0 0 0 0 0 -0 0 0 0 0 0 0 0 0 0 0 0 0 0 0 0 0 0 0 0 0 0 0 0 0 0 0 0
Wind_Speed_500mb
14 9 15 15 19 17 13 10 6 5 5 9 4 10 9 25 42 56 60 64 68 72 70 68 61 55 60 56 46 42 45 47 56 64 66 68 69 61 60 58 60 59 55 46
9 14 10 9 7 11 6 3 7 2 2 8 8 19 10 21 37 53 60 67 72 83 82 78 72 68 65 62 54 46 49 48 56 65 71 64 61 69 67 65 62 64 66 57
9 12 3 3 7 7 11 7 7 8 11 10 20 23 18 11 35 54 59 60 69 80 84 83 81 71 71 64 58 47 44 51 55 60 67 65 58 65 68 66 60 58 56 57
12 5 3 3 3 11 5 4 5 6 8 5 7 9 16 19 33 48 60 69 75 85 84 88 91 92 76 62 50 50 45 51 50 57 61 62 65 69 66 60 52 49 51 52
6 4 4 2 5 9 7 6 5 1 4 6 10 8 11 23 34 42 58 65 71 79 89 96 93 84 74 43 44 37 35 43 48 55 50 57 62 54 49 47 44 49 59 57
9 2 7 6 2 3 6 4 4 4 6 5 5 7 6 15 29 39 58 64 68 77 91 94 95 94 81 35 31 22 30 37 46 49 51 43 48 42 50 48 40 43 40 44
4 4 2 4 6 7 7 9 4 5 5 4 3 10 9 22 31 39 48 58 64 75 87 96 101 96 81 70 8 13 22 23 35 35 40 38 36 33 38 19 25 16 4 20
12 7 3 6 5 6 4 8 5 8 6 8 7 7 5 17 34 43 47 54 62 82 83 94 102 94 83 84 69 30 26 27 30 33 28 25 18 19 36 40 42 45 42 44
9 7 8 5 4 5 6 3 5 0 2 6 3 5 13 19 32 47 52 58 63 76 77 87 87 110 80 79 77 66 56 57 51 44 38 41 43 45 47 44 50 48 46 33
9 9 2 6 3 5 5 8 6 3 5 8 3 8 7 28 34 36 48 55 60 59 66 79 85 86 104 90 76 72 71 77 74 66 59 54 51 47 56 58 56 56 54 53
8 2 8 4 10 8 7 5 6 4 4 6 8 3 8 13 21 26 39 44 49 52 55 61 76 80 71 91 90 77 82 87 81 77 77 73 74 69 63 64 65 58 58 45
6 4 8 4 6 3 5 4 10 6 7 5 5 4 6 9 17 25 34 38 41 45 47 49 59 74 80 78 79 88 87 85 80 75 73 76 72 70 67 62 47 47 50 40
14 7 8 5 5 6 10 14 8 3 1 13 5 2 7 8 17 24 29 35 37 41 45 48 52 60 68 77 79 75 76 82 74 80 79 77 74 72 62 55 50 47 45 39
4 5 7 1 8 6 11 22 20 15 7 5 16 14 15 9 14 22 25 28 31 34 38 41 46 48 52 57 67 77 83 81 79 76 67 65 64 63 58 52 48 48 46 41
6 8 6 4 5 1 5 15 27 28 19 12 3 11 13 6 7 13 16 20 23 28 33 36 40 43 46 50 51 53 53 57 59 63 61 62 59 55 53 53 50 46 42 39
4 4 2 4 3 4 12 21 25 30 28 28 26 23 5 5 2 5 11 14 17 21 24 27 32 37 42 45 44 46 49 48 48 50 52 49 51 50 50 46 42 39 41 35
13 12 8 4 4 6 14 36 37 31 19 30 20 13 15 6 4 2 4 7 9 13 17 21 25 32 36 38 38 38 39 39 41 42 43 42 41 41 43 41 37 36 32 28
12 10 1 4 3 8 4 3 13 35 30 26 7 14 11 5 4 4 2 2 4 8 12 17 22 27 31 33 34 33 32 32 34 35 35 33 31 30 28 30 34 35 31 27
8 8 5 7 7 12 8 13 15 30 25 28 28 18 16 12 7 10 10 9 6 7 9 14 17 21 23 25 27 27 26 27 25 27 28 30 32 31 32 30 31 36 27 26
6 3 2 5 7 11 5 19 14 18 11 46 43 33 29 24 6 6 27 16 8 5 3 5 5 6 10 14 17 18 18 19 22 26 28 30 31 30 28 29 28 27 25 24
9 6 13 8 11 12 11 30 31 11 3 44 46 39 36 18 3 19 28 21 13 8 6 6 3 6 7 11 15 16 20 24 27 31 32 32 32 33 33 31 29 27 26 24
19 17 10 8 9 18 43 23 17 8 28 45 39 37 35 23 22 25 25 26 25 19 13 7 3 4 7 12 17 20 22 23 25 28 29 31 32 31 30 28 24 21 21 21
14 11 10 19 10 6 65 4 26 24 47 38 39 36 34 33 31 33 31 33 27 19 12 6 3 4 6 11 15 20 23 25 25 26 28 29 29 27 25 23 21 20 17 18
15 14 6 4 14 17 52 14 34 33 40 44 40 42 39 38 36 38 36 34 29 22 14 8 7 6 8 12 17 20 24 26 27 25 23 23 25 27 28 27 25 25 25 25
6 31 14 10 9 12 30 40 44 42 39 45 40 41 42 39 39 37 38 34 28 22 17 12 12 13 14 16 20 23 26 29 30 29 29 28 29 29 28 29 29 27 27 26
22 14 14 13 34 20 35 78 55 53 50 51 48 47 44 40 37 36 35 29 26 24 21 19 19 21 22 22 23 26 29 32 35 35 33 33 33 32 30 27 27 30 27 24
Wind_Direction_500mb
27 70 64 44 34 59 83 102 123 114 63 309 243 270 354 4 4 359 352 348 343 341 337 332 330 316 317 309 294 277 256 230 236 236 235 230 229 228 227 227 230 232 238 237
76 79 55 34 65 94 98 154 39 170 309 306 287 273 218 359 7 356 351 349 343 339 337 336 330 321 316 306 298 277 253 231 232 236 236 233 228 234 234 238 236 235 237 238
65 89 101 342 131 122 49 21 14 328 307 258 295 254 210 336 360 354 354 349 347 343 334 330 326 323 317 304 294 276 258 224 229 239 237 240 234 235 238 238 243 240 237 239
66 81 109 143 77 308 226 47 346 302 298 328 344 311 171 359 357 356 352 353 351 346 341 339 337 334 323 303 285 274 239 225 222 233 232 231 231 228 234 239 243 241 239 237
98 99 95 69 28 332 47 326 285 260 297 312 171 260 85 10 355 347 350 354 356 349 349 345 339 336 337 311 287 265 241 221 215 226 226 232 223 240 248 239 242 240 238 238
87 57 341 30 56 15 340 243 231 252 246 241 105 345 64 15 346 344 347 354 354 350 354 354 353 349 357 341 291 248 215 211 212 217 222 230 230 238 235 235 226 220 221 231
155 111 111 335 238 191 244 252 248 224 221 316 96 277 57 18 0 347 347 354 352 356 358 4 2 4 26 25 355 200 188 195 199 203 201 208 218 222 224 212 179 146 209 349
175 190 184 1 349 0 8 313 330 300 300 332 110 265 85 21 3 353 356 359 356 359 359 4 12 17 29 35 54 100 133 145 165 173 172 181 189 151 131 120 119 112 117 103
146 132 124 54 349 302 100 249 2 109 53 272 229 190 150 353 0 356 357 3 359 356 359 8 21 28 30 48 59 73 93 102 110 111 113 115 112 107 101 107 113 108 110 105
143 123 173 120 276 101 302 105 225 131 288 280 170 272 293 358 346 348 354 1 356 359 360 15 32 32 33 38 63 79 90 94 97 99 101 106 106 102 100 100 97 94 90 83
154 223 139 178 205 191 166 190 226 318 285 291 305 89 60 355 343 344 349 360 359 1 5 10 34 43 36 39 36 56 80 92 92 96 101 102 106 109 105 102 91 91 88 85
163 112 164 145 119 286 286 239 238 256 174 250 300 295 115 14 356 358 353 360 4 4 11 18 28 43 45 42 42 42 61 72 84 91 91 90 91 96 97 95 94 89 93 90
177 174 134 154 197 196 229 193 225 212 350 222 251 65 168 44 21 17 2 1 10 10 13 22 28 35 45 51 51 57 63 66 71 78 82 86 87 88 87 89 88 89 91 83
152 198 261 242 83 129 191 199 198 214 193 204 238 287 207 30 21 13 6 5 11 20 19 20 29 33 40 49 58 62 62 62 65 69 74 76 72 77 81 84 83 84 81 81
194 209 212 110 82 261 238 195 199 215 222 227 47 264 313 12 14 9 3 3 15 24 28 26 29 35 46 53 59 67 67 66 66 71 70 70 72 73 76 77 76 76 77 75
166 175 133 207 298 251 252 235 220 227 235 242 262 269 359 150 328 356 10 7 16 26 31 34 40 46 51 60 61 70 73 72 74 74 73 68 65 65 63 64 66 65 63 61
161 147 172 191 7 278 265 223 210 217 218 217 232 245 168 207 240 307 352 9 22 33 40 42 45 52 54 57 64 66 73 80 78 77 75 72 70 65 59 52 47 46 45 42
144 132 255 131 223 238 73 58 213 209 217 207 170 170 194 204 168 162 149 51 42 49 58 60 62 63 64 62 60 61 65 65 68 70 67 65 60 54 45 29 17 13 7 11
171 143 132 180 209 309 190 190 182 185 226 210 205 183 164 149 148 221 179 143 130 121 107 94 82 69 61 57 58 56 51 47 39 33 30 26 22 22 15 360 1 350 345 347
128 319 260 174 221 232 78 146 160 176 267 186 191 181 166 152 200 186 180 172 175 144 117 99 81 32 3 357 360 358 355 354 349 350 350 349 349 347 345 348 346 340 339 339
158 161 211 193 243 281 168 156 157 161 178 168 174 171 166 179 164 147 172 170 178 184 215 232 254 338 322 346 352 341 340 335 325 321 327 330 334 336 339 338 335 335 333 334
172 161 181 179 225 257 152 142 193 136 143 157 161 165 172 170 158 168 169 169 172 168 142 130 110 11 351 344 345 341 338 335 327 325 325 326 329 332 336 338 340 340 338 337
205 200 184 201 215 116 172 104 183 161 151 164 163 168 168 171 168 172 180 172 177 178 189 207 252 313 339 351 351 346 341 337 333 331 330 329 329 329 331 332 331 330 331 331
217 179 225 153 207 202 197 193 189 169 171 175 178 172 176 175 176 176 186 178 185 195 195 211 238 269 299 327 337 339 338 337 332 327 324 325 327 326 325 322 318 315 312 313
177 156 174 253 247 174 201 209 186 178 178 175 178 180 177 178 179 182 187 187 197 208 218 238 259 274 288 304 320 327 330 331 329 325 320 316 316 314 313 312 311 311 311 309
190 168 183 214 184 182 204 195 188 185 182 183 183 183 186 190 189 194 201 203 213 226 242 260 273 277 281 289 304 316 321 325 326 321 318 314 314 315 313 312 312 311 311 311
Wind_Speed_850mb
14 9 15 15 19 17 13 10 6 5 5 9 4 10 9 25 42 56 60 64 68 72 70 68 61 55 60 56 46 42 45 47 56 64 66 68 69 61 60 58 60 59 55 46
9 14 10 9 7 11 6 3 7 2 2 8 8 19 10 21 37 53 60 67 72 83 82 78 72 68 65 62 54 46 49 48 56 65 71 64 61 69 67 65 62 64 66 57
9 12 3 3 7 7 11 7 7 8 11 10 20 23 18 11 35 54 59 60 69 80 84 83 81 71 71 64 58 47 44 51 55 60 67 65 58 65 68 66 60 58 56 57
12 5 3 3 3 11 5 4 5 6 8 5 7 9 16 19 33 48 60 69 75 85 84 88 91 92 76 62 50 50 45 51 50 57 61 62 65 69 66 60 52 49 51 52
6 4 4 2 5 9 7 6 5 1 4 6 10 8 11 23 34 42 58 65 71 79 89 96 93 84 74 43 44 37 35 43 48 55 50 57 62 54 49 47 44 49 59 57
9 2 7 6 2 3 6 4 4 4 6 5 5 7 6 15 29 39 58 64 68 77 91 94 95 94 81 35 31 22 30 37 46 49 51 43 48 42 50 48 40 43 40 44
4 4 2 4 6 7 7 9 4 5 5 4 3 10 9 22 31 39 48 58 64 75 87 96 101 96 81 70 8 13 22 23 35 35 40 38 36 33 38 19 25 16 4 20
12 7 3 6 5 6 4 8 5 8 6 8 7 7 5 17 34 43 47 54 62 82 83 94 102 94 83 84 69 30 26 27 30 33 28 25 18 19 36 40 42 45 42 44
9 7 8 5 4 5 6 3 5 0 2 6 3 5 13 19 32 47 52 58 63 76 77 87 87 110 80 79 77 66 56 57 51 44 38 41 43 45 47 44 50 48 46 33
9 9 2 6 3 5 5 8 6 3 5 8 3 8 7 28 34 36 48 55 60 59 66 79 85 86 104 90 76 72 71 77 74 66 59 54 51 47 56 58 56 56 54 53
8 2 8 4 10 8 7 5 6 4 4 6 8 3 8 13 21 26 39 44 49 52 55 61 76 80 71 91 90 77 82 87 81 77 77 73 74 69 63 64 65 58 58 45
6 4 8 4 6 3 5 4 10 6 7 5 5 4 6 9 17 25 34 38 41 45 47 49 59 74 80 78 79 88 87 85 80 75 73 76 72 70 67 62 47 47 50 40
14 7 8 5 5 6 10 14 8 3 1 13 5 2 7 8 17 24 29 35 37 41 45 48 52 60 68 77 79 75 76 82 74 80 79 77 74 72 62 55 50 47 45 39
4 5 7 1 8 6 11 22 20 15 7 5 16 14 15 9 14 22 25 28 31 34 38 41 46 48 52 57 67 77 83 81 79 76 67 65 64 63 58 52 48 48 46 41
6 8 6 4 5 1 5 15 27 28 19 12 3 11 13 6 7 13 16 20 23 28 33 36 40 43 46 50 51 53 53 57 59 63 61 62 59 55 53 53 50 46 42 39
4 4 2 4 3 4 12 21 25 30 28 28 26 23 5 5 2 5 11 14 17 21 24 27 32 37 42 45 44 46 49 48 48 50 52 49 51 50 50 46 42 39 41 35
13 12 8 4 4 6 14 36 37 31 19 30 20 13 15 6 4 2 4 7 9 13 17 21 25 32 36 38 38 38 39 39 41 42 43 42 41 41 43 41 37 36 32 28
12 10 1 4 3 8 4 3 13 35 30 26 7 14 11 5 4 4 2 2 4 8 12 17 22 27 31 33 34 33 32 32 34 35 35 33 31 30 28 30 34 35 31 27
8 8 5 7 7 12 8 13 15 30 25 28 28 18 16 12 7 10 10 9 6 7 9 14 17 21 23 25 27 27 26 27 25 27 28 30 32 31 32 30 31 36 27 26
6 3 2 5 7 11 5 19 14 18 11 46 43 33 29 24 6 6 27 16 8 5 3 5 5 6 10 14 17 18 18 19 22 26 28 30 31 30 28 29 28 27 25 24
9 6 13 8 11 12 11 30 31 11 3 44 46 39 36 18 3 19 28 21 13 8 6 6 3 6 7 11 15 16 20 24 27 31 32 32 32 33 33 31 29 27 26 24
19 17 10 8 9 18 43 23 17 8 28 45 39 37 35 23 22 25 25 26 25 19 13 7 3 4 7 12 17 20 22 23 25 28 29 31 32 31 30 28 24 21 21 21
14 11 10 19 10 6 65 4 26 24 47 38 39 36 34 33 31 33 31 33 27 19 12 6 3 4 6 11 15 20 23 25 25 26 28 29 29 27 25 23 21 20 17 18
15 14 6 4 14 17 52 14 34 33 40 44 40 42 39 38 36 38 36 34 29 22 14 8 7 6 8 12 17 20 24 26 27 25 23 23 25 27 28 27 25 25 25 25
6 31 14 10 9 12 30 40 44 42 39 45 40 41 42 39 39 37 38 34 28 22 17 12 12 13 14 16 20 23 26 29 30 29 29 28 29 29 28 29 29 27 27 26
22 14 14 13 34 20 35 78 55 53 50 51 48 47 44 40 37 36 35 29 26 24 21 19 19 21 22 22 23 26 29 32 35 35 33 33 33 32 30 27 27 30 27 24
Wind_Direction_850mb
27 70 64 44 34 59 83 102 123 114 63 309 243 270 354 4 4 359 352 348 343 341 337 332 330 316 317 309 294 277 256 230 236 236 235 230 229 228 227 227 230 232 238 237
76 79 55 34 65 94 98 154 39 170 309 306 287 273 218 359 7 356 351 349 343 339 337 336 330 321 316 306 298 277 253 231 232 236 236 233 228 234 234 238 236 235 237 238
65 89 101 342 131 122 49 21 14 328 307 258 295 254 210 336 360 354 354 349 347 343 334 330 326 323 317 304 294 276 258 224 229 239 237 240 234 235 238 238 243 240 237 239
66 81 109 143 77 308 226 47 346 302 298 328 344 311 171 359 357 356 352 353 351 346 341 339 337 334 323 303 285 274 239 225 222 233 232 231 231 228 234 239 243 241 239 237
98 99 95 69 28 332 47 326 285 260 297 312 171 260 85 10 355 347 350 354 356 349 349 345 339 336 337 311 287 265 241 221 215 226 226 232 223 240 248 239 242 240 238 238
87 57 341 30 56 15 340 243 231 252 246 241 105 345 64 15 346 344 347 354 354 350 354 354 353 349 357 341 291 248 215 211 212 217 222 230 230 238 235 235 226 220 221 231
155 111 111 335 238 191 244 252 248 224 221 316 96 277 57 18 0 347 347 354 352 356 358 4 2 4 26 25 355 200 188 195 199 203 201 208 218 222 224 212 179 146 209 349
175 190 184 1 349 0 8 313 330 300 300 332 110 265 85 21 3 353 356 359 356 359 359 4 12 17 29 35 54 100 133 145 165 173 172 181 189 151 131 120 119 112 117 103
146 132 124 54 349 302 100 249 2 109 53 272 229 190 150 353 0 356 357 3 359 356 359 8 21 28 30 48 59 73 93 102 110 111 113 115 112 107 101 107 113 108 110 105
143 123 173 120 276 101 302 105 225 131 288 280 170 272 293 358 346 348 354 1 356 359 360 15 32 32 33 38 63 79 90 94 97 99 101 106 106 102 100 100 97 94 90 83
154 223 139 178 205 191 166 190 226 318 285 291 305 89 60 355 343 344 349 360 359 1 5 10 34 43 36 39 36 56 80 92 92 96 101 102 106 109 105 102 91 91 88 85
163 112 164 145 119 286 286 239 238 256 174 250 300 295 115 14 356 358 353 360 4 4 11 18 28 43 45 42 42 42 61 72 84 91 91 90 91 96 97 95 94 89 93 90
177 174 134 154 197 196 229 193 225 212 350 222 251 65 168 44 21 17 2 1 10 10 13 22 28 35 45 51 51 57 63 66 71 78 82 86 87 88 87 89 88 89 91 83
152 198 261 242 83 129 191 199 198 214 193 204 238 287 207 30 21 13 6 5 11 20 19 20 29 33 40 49 58 62 62 62 65 69 74 76 72 77 81 84 83 84 81 81
194 209 212 110 82 261 238 195 199 215 222 227 47 264 313 12 14 9 3 3 15 24 28 26 29 35 46 53 59 67 67 66 66 71 70 70 72 73 76 77 76 76 77 75
166 175 133 207 298 251 252 235 220 227 235 242 262 269 359 150 328 356 10 7 16 26 31 34 40 46 51 60 61 70 73 72 74 74 73 68 65 65 63 64 66 65 63 61
161 147 172 191 7 278 265 223 210 217 218 217 232 245 168 207 240 307 352 9 22 33 40 42 45 52 54 57 64 66 73 80 78 77 75 72 70 65 59 52 47 46 45 42
144 132 255 131 223 238 73 58 213 209 217 207 170 170 194 204 168 162 149 51 42 49 58 60 62 63 64 62 60 61 65 65 68 70 67 65 60 54 45 29 17 13 7 11
171 143 132 180 209 309 190 190 182 185 226 210 205 183 164 149 148 221 179 143 130 121 107 94 82 69 61 57 58 56 51 47 39 33 30 26 22 22 15 360 1 350 345 347
128 319 260 174 221 232 78 146 160 176 267 186 191 181 166 152 200 186 180 172 175 144 117 99 81 32 3 357 360 358 355 354 349 350 350 349 349 347 345 348 346 340 339 339
158 161 211 193 243 281 168 156 157 161 178 168 174 171 166 179 164 147 172 170 178 184 215 232 254 338 322 346 352 341 340 335 325 321 327 330 334 336 339 338 335 335 333 334
172 161 181 179 225 257 152 142 193 136 143 157 161 165 172 170 158 168 169 169 172 168 142 130 110 11 351 344 345 341 338 335 327 325 325 326 329 332 336 338 340 340 338 337
205 200 184 201 215 116 172 104 183 161 151 164 163 168 168 171 168 172 180 172 177 178 189 207 252 313 339 351 351 346 341 337 333 331 330 329 329 329 331 332 331 330 331 331
217 179 225 153 207 202 197 193 189 169 171 175 178 172 176 175 176 176 186 178 185 195 195 211 238 269 299 327 337 339 338 337 332 327 324 325 327 326 325 322 318 315 312 313
177 156 174 253 247 174 201 209 186 178 178 175 178 180 177 178 179 182 187 187 197 208 218 238 259 274 288 304 320 327 330 331 329 325 320 316 316 314 313 312 311 311 311 309
190 168 183 214 184 182 204 195 188 185 182 183 183 183 186 190 189 194 201 203 213 226 242 260 273 277 281 289 304 316 321 325 326 321 318 314 314 315 313 312 312 311 311 311